User: anonymous   Login
Location: *
(47.7167°N, 1.7333°W)
Time: 01:54:07
(UTC+00:00)
Language:

Ariane Rocket - Orbit

View from above orbital plane
View from above orbital plane
View from above satellite
View from above satellite

Ground track
Ground track

The orbit data is extracted from the following two-line orbital elements,

1 23561U 95021B   20192.40590258 +.00000005 +00000-0 +16904-4 0  9990
2 23561 098.7222 231.9487 0006980 176.5280 194.4847 14.37974703321878
Epoch (UTC): 10 July 2020 09:44:29
Eccentricity: 0.0006980
inclination: 98.7222°
perigee height: 760 km
apogee height: 770 km
right ascension of ascending node: 231.9487°
argument of perigee: 176.5280°
revolutions per day: 14.37974703
mean anomaly at epoch: 194.4847°
orbit number at epoch: 32187

The dashed part of the orbit path shows where the satellite is in the earth's shadow,  

DLR